Location: Étouvelles
(49.5207°N, 3.5808°E)
Time: 23:36:10
(UTC+00:00)

In-Cosmos 22 Rocket - Pass Details

Date: 03 February 2023
Orbit: 789 x 888 km, 81.2° (Epoch: 01 April)

Event Time Altitude Azimuth Distance (km) Brightness Sun altitude
Rises 18:30:18 0° 192° (SSW) 3,467 7.6 -17.4°
Reaches altitude 10° 18:32:44 10° 193° (SSW) 2,540 6.9 -17.8°
Maximum altitude 18:38:33 84° 282° (WNW) 901 4.3 -18.7°
Drops below altitude 10° 18:44:26 10° 11° (N) 2,562 6.6 -19.7°
Sets 18:46:53 0° 12° (NNE) 3,500 7.3 -20.1°
